This demonstration page uses our WeatherBlox Daily Observations layout. Learn more.

Left ArrowRight Arrow

Hourly Observations for July 29, 2015

Temp ( °F °C ) Dew Point ( °F °C ) Humidity (%) Winds ( mph kmh ) Pressure ( in mb ) Visibility ( mi km ) Precip ( " mm )
12:53 am 00:53 Clear with Light Rain 74 23.3 72 22.2 94 94 N N/A 29.97 1015 7 11 N/A
1:53 am 01:53 Clear with Light Rain 73 22.8 71 21.7 94 94 N N/A 29.96 1014 6 10 N/A
2:53 am 02:53 Clear with Mist and Fog 72 22.2 71 21.7 97 97 N N/A 29.95 1014 5 8 N/A
3:53 am 03:53 Clear with Mist and Fog 72 22.2 71 21.7 97 97 N N/A 29.94 1014 3 4 N/A
4:00 am 04:00 Clear with Mist and Fog 72 22.2 70 21.1 94 94 N N/A 29.97 1015 4 6 N/A
4:40 am 04:40 Clear with Mist and Fog 71 21.7 70 21.1 96 96 N N/A 29.97 1015 3 4 N/A
4:53 am 04:53 Clear with Mist and Fog 72 22.2 70 21.1 94 94 N N/A 29.96 1014 3 5 N/A
5:13 am 05:13 Clear with Mist and Fog 71 21.7 70 21.1 96 96 N N/A 29.97 1015 2 3 N/A
5:26 am 05:26 Clear with Mist and Fog 71 21.7 70 21.1 96 96 N N/A 29.97 1015 3 5 N/A
5:53 am 05:53 Clear with Mist and Fog 71 21.7 70 21.1 96 96 N N/A 29.96 1015 3 4 N/A
6:29 am 06:29 Mostly Cloudy with Fog 71 21.7 70 21.1 96 96 N N/A 29.97 1015 1 1 N/A
6:47 am 06:47 Partly Cloudy with Mist and Fog 72 22 70 21 94 94 N N/A 30.00 1016 2 2 N/A
6:49 am 06:49 Partly Cloudy with Mist and Fog 72 22 70 21 94 94 N N/A 30.00 1016 2 3 N/A
6:53 am 06:53 Partly Cloudy with Mist and Fog 71 21.7 70 21.1 96 96 N N/A 29.97 1015 3 4 N/A
7:38 am 07:38 Sunny with Mist and Fog 75 23.9 73 22.8 94 94 N N/A 30.00 1016 3 5 N/A
7:53 am 07:53 Sunny with Mist and Fog 76 24.4 74 23.3 94 94 N N/A 29.98 1015 3 5 N/A
8:53 am 08:53 Hazy 79 26.1 74 23.3 85 85 N N/A 29.98 1015 5 8 N/A
9:53 am 09:53 Sunny 84 28.9 75 23.9 74 74 N N/A 29.98 1015 7 11 N/A
10:53 am 10:53 Sunny 87 30.6 75 23.9 67 67 N N/A 29.98 1015 9 14 N/A
11:53 am 11:53 Mostly Sunny 90 32.2 74 23.3 59 59 W 5 7 29.97 1015 10 16 N/A
12:53 pm 12:53 Mostly Cloudy 89 31.7 75 23.9 63 63 VRB 3 6 29.96 1014 10 16 N/A
1:53 pm 13:53 Mostly Sunny 92 33.3 75 23.9 58 58 VRB 5 7 29.95 1014 10 16 N/A
2:53 pm 14:53 Sunny 92 33.3 75 23.9 58 58 VRB 6 9 29.93 1014 10 16 N/A
3:11 pm 15:11 Partly Cloudy with Nearby Thunderstorms 90 32.2 75 23.9 62 62 N N/A 29.91 1013 10 16 N/A
3:23 pm 15:23 Mostly Cloudy with Thunderstorms 86 30 76 24.4 72 72 VRB 6 9 29.91 1013 4 6 0.01 0.25
3:46 pm 15:46 Cloudy with Strong Thunderstorms 78 25.6 72 22.2 82 82 NW 15 24 29.97 1015 2 3 0.12 3.05
3:53 pm 15:53 Cloudy with Thunderstorms 76 24.4 71 21.7 85 85 NNW 6 9 29.93 1014 1 2 0.17 4.32
3:57 pm 15:57 Mostly Cloudy with Thunderstorms 75 23.9 72 22.2 90 90 SSE 5 7 29.94 1014 3 5 N/A
4:18 pm 16:18 Mostly Cloudy 77 25 74 23.3 90 90 N N/A 29.97 1015 9 14 N/A
4:37 pm 16:37 Mostly Cloudy with Nearby Thunderstorms 79 26.1 76 24.4 90 90 N N/A 29.91 1013 8 13 N/A
4:53 pm 16:53 Mostly Sunny 80 26.7 75 23.9 85 85 N N/A 29.93 1014 9 14 N/A
5:53 pm 17:53 Sunny 82 27.8 76 24.4 82 82 VRB 5 7 29.94 1014 10 16 N/A
6:12 pm 18:12 Partly Cloudy with Nearby Thunderstorms 80 26.7 75 23.9 85 85 VRB 5 7 29.94 1014 10 16 N/A
6:36 pm 18:36 Partly Cloudy 81 27.2 75 23.9 82 82 SE 3 6 29.91 1013 10 16 N/A
6:53 pm 18:53 Partly Cloudy with Light Rain 81 27.2 76 24.4 85 85 SSE 5 7 29.94 1014 9 14 N/A
7:53 pm 19:53 Mostly Sunny 80 26.7 75 23.9 85 85 ENE 3 6 29.94 1014 10 16 N/A
8:53 pm 20:53 Mostly Sunny 78 25.6 75 23.9 90 90 N N/A 29.95 1014 7 11 N/A
9:53 pm 21:53 Mostly Cloudy 77 25 74 23.3 90 90 N N/A 29.96 1015 9 14 N/A
10:53 pm 22:53 Clear 77 25 74 23.3 90 90 N N/A 29.98 1015 8 13 N/A
11:53 pm 23:53 Mostly Clear 76 24.4 73 22.8 91 91 N N/A 29.97 1015 10 16 N/A

Powered by AerisWeather